Okatibbee Lake Weather Center

Moon Phase Calendar



Okatibbee Lake Water Level
Online Cameras

 


      

Current Conditions in Collinsville
8/13/2022 7:58:39 AM

74°F
Feels Like 76
Clouds
Humidity
90%
Pressure
30.06"
Wind
3.8 mph (ENE)
Dew Point
71°F
UV Index
1/10 (Low)
Visibility
6 mi

Hourly Forecast

Date & Time Sat, Aug 13
7:00 AM
Sat, Aug 13
8:00 AM
Sat, Aug 13
9:00 AM
Sat, Aug 13
10:00 AM
Sat, Aug 13
11:00 AM
Sat, Aug 13
12:00 PM
Sat, Aug 13
1:00 PM
Sat, Aug 13
2:00 PM
Sat, Aug 13
3:00 PM
Sat, Aug 13
4:00 PM
Sat, Aug 13
5:00 PM
Sat, Aug 13
6:00 PM
Sat, Aug 13
7:00 PM
Sat, Aug 13
8:00 PM
Sat, Aug 13
9:00 PM
Sat, Aug 13
10:00 PM
Sat, Aug 13
11:00 PM
Sun, Aug 14
12:00 AM
Sun, Aug 14
1:00 AM
Sun, Aug 14
2:00 AM
Sun, Aug 14
3:00 AM
Sun, Aug 14
4:00 AM
Sun, Aug 14
5:00 AM
Sun, Aug 14
6:00 AM
Sun, Aug 14
7:00 AM
Sun, Aug 14
8:00 AM
Sun, Aug 14
9:00 AM
Sun, Aug 14
10:00 AM
Sun, Aug 14
11:00 AM
Sun, Aug 14
12:00 PM
Sun, Aug 14
1:00 PM
Sun, Aug 14
2:00 PM
Sun, Aug 14
3:00 PM
Sun, Aug 14
4:00 PM
Sun, Aug 14
5:00 PM
Sun, Aug 14
6:00 PM
Sun, Aug 14
7:00 PM
Sun, Aug 14
8:00 PM
Sun, Aug 14
9:00 PM
Sun, Aug 14
10:00 PM
Sun, Aug 14
11:00 PM
Mon, Aug 15
12:00 AM
Mon, Aug 15
1:00 AM
Mon, Aug 15
2:00 AM
Mon, Aug 15
3:00 AM
Mon, Aug 15
4:00 AM
Mon, Aug 15
5:00 AM
Mon, Aug 15
6:00 AM
Condition
Clouds

Clouds

Clouds

Clouds

Clouds

Clouds

Clouds

Clouds

Clouds

Clouds

Clouds

Clouds

Clouds

Clouds

Clouds

Clouds

Clouds

Clouds

Clouds

Clear

Clear

Clear

Clear

Clear

Clear

Clouds

Clouds

Clouds

Clouds

Clear

Clear

Clouds

Clouds

Clouds

Clouds

Clouds

Clouds

Clouds

Clouds

Clouds

Clouds

Clouds

Clouds

Clouds

Clouds

Clouds

Clouds

Clouds
Temperature 73°F74°F75°F78°F82°F87°F93°F95°F96°F96°F94°F93°F86°F83°F81°F80°F79°F75°F74°F73°F72°F71°F71°F70°F71°F76°F82°F87°F91°F95°F97°F99°F100°F99°F98°F96°F89°F84°F81°F79°F78°F77°F76°F76°F75°F75°F74°F74°F
Feels Like 74°F76°F76°F79°F85°F90°F96°F98°F98°F96°F94°F93°F87°F84°F83°F80°F79°F76°F75°F74°F73°F73°F72°F71°F72°F77°F84°F89°F93°F96°F99°F100°F100°F99°F97°F97°F90°F84°F82°F79°F78°F77°F77°F76°F76°F75°F75°F74°F
Cloudiness 63%59%62%69%64%57%58%25%21%16%25%31%36%99%99%99%99%83%70%1%0%0%0%0%1%34%20%13%12%9%8%22%24%18%17%15%14%20%23%17%32%26%23%100%100%96%86%74%
Visibility 6 mi6 mi6 mi6 mi6 mi6 mi6 mi6 mi6 mi6 mi6 mi6 mi6 mi6 mi6 mi6 mi6 mi6 mi6 mi6 mi6 mi6 mi6 mi6 mi6 mi6 mi6 mi6 mi6 mi6 mi6 mi6 mi6 mi6 mi6 mi6 mi6 mi6 mi6 mi6 mi6 mi6 mi6 mi6 mi6 mi6 mi6 mi6 mi
Precipitation 0%0%0%0%0%0%0%0%0%0%0%0%0%0%0%0%0%0%0%8%8%0%0%0%0%0%0%0%0%0%0%0%0%0%0%0%0%0%0%0%0%0%0%0%0%0%0%0%
Humidity 90%90%86%76%64%51%39%37%34%32%32%37%50%52%61%68%73%83%86%87%90%91%91%90%86%72%60%50%42%36%32%29%27%27%27%33%44%47%52%58%62%67%70%73%75%75%72%69%
Dew Point 70°F71°F70°F70°F69°F67°F65°F65°F63°F62°F60°F63°F65°F63°F66°F68°F69°F70°F69°F68°F69°F69°F68°F67°F67°F66°F66°F66°F65°F64°F62°F61°F60°F59°F59°F62°F64°F61°F62°F63°F64°F65°F66°F66°F66°F66°F65°F63°F
Pressure 30.06"30.06"30.06"30.06"30.06"30.03"30.03"30"29.97"29.94"29.91"29.91"29.91"29.94"29.97"29.97"29.97"29.97"29.97"29.94"29.94"29.94"29.94"29.94"29.97"30"30"30"30"29.97"29.94"29.94"29.91"29.88"29.88"29.88"29.88"29.88"29.91"29.91"29.91"29.91"29.91"29.88"29.88"29.88"29.88"29.91"
Wind Speed 3.4 mph3.8 mph3.1 mph3.3 mph3.3 mph2.9 mph2.3 mph1.8 mph1.1 mph1.2 mph1.5 mph1.4 mph2.5 mph3.1 mph3.7 mph4 mph4.8 mph4 mph4.3 mph4.2 mph3.7 mph3.2 mph2.7 mph3.2 mph3.2 mph3 mph3.1 mph3.2 mph3.1 mph3 mph2.6 mph2.5 mph2 mph2 mph2.2 mph1.7 mph0.8 mph2.3 mph2.8 mph1.5 mph3.5 mph5.1 mph4.6 mph4.4 mph3.9 mph3.7 mph3.5 mph4.4 mph
Wind
Direction
66°
ENE
58°
ENE
84°
E
85°
E
83°
E
84°
E
68°
ENE
57°
ENE
46°
NE
25°
NNE
28°
NNE
58°
ENE
61°
ENE
111°
ESE
159°
SSE
203°
SSW
215°
SW
232°
SW
246°
WSW
250°
WSW
263°
W
275°
W
276°
W
267°
W
275°
W
273°
W
289°
WNW
294°
WNW
284°
WNW
267°
W
283°
WNW
289°
WNW
316°
NW
331°
NNW
355°
N
21°
NNE
102°
ESE
197°
SSW
231°
SW
237°
WSW
219°
SW
237°
WSW
258°
WSW
253°
WSW
257°
WSW
261°
W
273°
W
269°
W

Daily Forecast

Date High Low Precip. Humidity
Today
Aug 13

Clouds
96 °F
71 °F
40%
39%
Sunday
Aug 14

Clear
100 °F
70 °F
8%
36%
Monday
Aug 15

Rain
100 °F
74 °F
45%
33%
Tuesday
Aug 16

Rain
96 °F
73 °F
93%
41%
Wednesday
Aug 17

Rain
84 °F
69 °F
100%
66%
Thursday
Aug 18

Rain
79 °F
69 °F
100%
96%
Friday
Aug 19

Rain
85 °F
70 °F
100%
66%
Saturday
Aug 20

Rain
89 °F
70 °F
56%
67%
Sunday
Aug 21

Rain
91 °F
72 °F
86%
55%
Monday
Aug 22

Rain
83 °F
72 °F
93%
84%
Tuesday
Aug 23

Rain
90 °F
70 °F
63%
51%
Wednesday
Aug 24

Clouds
93 °F
71 °F
26%
46%
Thursday
Aug 25

Rain
94 °F
73 °F
20%
43%
Friday
Aug 26

Rain
96 °F
75 °F
100%
41%
Saturday
Aug 27

Rain
96 °F
73 °F
100%
44%
Sunday
Aug 28

Rain
93 °F
73 °F
100%
47%

Temperature 8-14 Day Outlook



Precipitation 8-14 Day Outlook




Quick Links
Okatibbee Lake News
Okatibbee Lake Photos
Okatibbee Lake Videos




About Us
Contact Us
Site Map
Search Site
Advertise With Us
   
Okatibbee.LakesOnline.com
THE OKATIBBEE LAKE WEBSITE

Copyright 2022, Lakes Online
Privacy    |    Legal